Regional Weather Roundup
Issued by NWS

Home | Current Version | Previous Version | Text Only | Print | Product List | Glossary Off
Versions: 1 2 3 4 5 6 7 8 9 10 11 12 13 14 15 16 17 18 19 20 21 22 23 24 25 26 27 28 29 30 31 32 33 34 35 36 37 38 39 40 41 42 43 44 45 46 47 48 49 50

000
ASUS45 KTFX 021119
RWRMT
MONTANA HOURLY WEATHER ROUNDUP
NATIONAL WEATHER SERVICE GREAT FALLS MT
419 AM MST MON MAR 2 2015

NOTE: "FAIR" INDICATES FEW OR NO CLOUDS BELOW 12000 FEET WITH NO
SIGNIFICANT WEATHER AND/OR OBSTRUCTIONS TO VISIBILITY.

* THESE STATIONS ARE NOT UNDER NWS QUALITY CONTROL. THEY DO NOT
   REPORT WEATHER SUCH AS PRECIPITATION OR FOG.

MTZ001>007-043-021200-
WEST OF THE DIVIDE
CITY           SKY/WX    TMP DP  RH WIND       PRES   REMARKS
KALISPELL      FAIR      18  12  77 NW3       29.90F
MISSOULA       CLEAR     19  12  74 CALM      29.93F
BUTTE          PTCLDY    10   3  73 SE5       29.86F WCI   1
MULLAN PASS    MOCLDY    23   5  46 SW6       29.79F WCI  16
* ANACONDA     CLEAR     19   5  54 S5         N/A   WCI  12
* ESSEX        N/A       13   7  77 N/A        N/A
* EUREKA APT   PTCLDY    25  12  58 E5        29.91F WCI  19
* HAMILTON APT PTCLDY    23  12  63 N3        29.89F
* LIBBY APT    CLEAR     19  16  88 CALM      29.92F
* LINCOLN      N/A        7   2  80 NE1        N/A
* LOOKOUT PASS N/A       21   9  60 S2         N/A
* POLSON       N/A       24  15  68 N/A        N/A
* RONAN APT    PTCLDY    25  19  78 N/A        N/A
* SEELEY LAKE  N/A        5   0  80 N2         N/A
* THOMP F APT  CLEAR     19  -7  31 NE4        N/A
* YAAK HILL    N/A       25  13  60 N/A        N/A
$$

MTZ008-052>055-021200-
SOUTHWEST MONTANA
CITY           SKY/WX    TMP DP  RH WIND       PRES   REMARKS
DILLON         CLEAR     18   1  47 S9        29.86F WCI   7
* W YELLOWSTON CLEAR     -7 -14  71 N/A        N/A
* THREE FORKS  CLEAR      9   3  76 N/A        N/A
* BOULDER HILL N/A       16   0  49 SW12       N/A   WCI   3
* MONIDA PASS  N/A       11  -5  48 W2         N/A
* RAYNOLDS PAS N/A        7  -7  52 S6         N/A   WCI  -4
* WHITEHALL    N/A       10  -1  61 NW3G10     N/A
* WISE RIVER   N/A        7   0  73 W3         N/A
$$

MTZ009>010-012-014-046-048-049-054-021200-
EAST SLOPES AND CENTRAL MONTANA
CITY           SKY/WX    TMP DP  RH WIND       PRES   REMARKS
CUT BANK       MOCLDY    23  12  63 W8        29.78F WCI  14
GREAT FALLS    MOCLDY    28  10  47 SW18      29.78F WCI  15
HELENA         PTCLDY    19  10  68 CALM      29.88F
MALMSTROM AFB  PTCLDY    28  10  47 SW16      29.80F WCI  16
* CONRAD       MOCLDY    18  12  77 CALM       N/A
* DEARBORN     N/A       29   8  41 S12G17     N/A   WCI  19
* EAST GLACIER N/A       26   5  40 W12G26     N/A   WCI  15
* MONARCH      N/A       26  -2  29 SW10G19    N/A   WCI  16
* PENDROY      N/A       30  13  49 W8         N/A   WCI  22
* ROGERS PASS  N/A       23   3  42 E5G11      N/A   WCI  16
* SWEET GRASS  N/A       24  11  57 W11        N/A   WCI  13
* WHITE SULPH  N/A       13   0  56 NE5        N/A   WCI   5
$$

MTZ011-013-016-021-035-040-045-047-050-051-021200-
NORTH CENTRAL MONTANA
CITY           SKY/WX    TMP DP  RH WIND       PRES   REMARKS
HAVRE          PTCLDY    12   9  88 CALM      29.81F
LEWISTOWN      PTCLDY    30  10  43 SW14      29.79F WCI  19
* CHINOOK      CLEAR     16  10  77 E6        29.83F WCI   7
* FORT BENTON  CLEAR     18  12  77 CALM      29.84F
* CHESTER      N/A       10   5  80 NE2        N/A
* DENTON       N/A       24   9  53 S12G17     N/A   WCI  13
* GEYSER       N/A       31   7  36 SW15       N/A   WCI  20
* JUDITH GAP   N/A       12   8  84 SE11       N/A   WCI  -2
* LOMA         N/A       18  12  77 NE8        N/A   WCI   8
$$

MTZ017>020-022>027-061-062-021200-
NORTHEAST MONTANA
CITY           SKY/WX    TMP DP  RH WIND       PRES   REMARKS
GLASGOW        MOCLDY    18   9  68 SE15      29.89F WCI   4
GLENDIVE       PTCLDY    10   3  73 SE3       30.00F
JORDAN         PTCLDY    18   9  68 S9        29.90F WCI   7
SIDNEY         CLEAR      9   7  91 S5        30.07F
WOLF POINT     PTCLDY    10   7  88 NE7       29.98F WCI  -1
* BEAVER HILL  N/A       14   6  70 SE20G27    N/A   WCI  -4
* CIRCLE       N/A       16   9  74 SE1        N/A
* LINDSAY DVD  N/A        5   2  87 E6         N/A   WCI  -6
* NAVAJO       N/A       13   6  73 S12        N/A   WCI  -1
* PLENTYWOOD A PTCLDY     9   5  84 SE13      29.98F WCI  -7
* POPLAR APT   PTCLDY    18   9  68 SE7       29.99F WCI   9
* SACO         N/A       18  10  71 E10G17     N/A   WCI   6
* SCOBEY APT   PTCLDY    12   1  61 SE7        N/A   WCI   1
$$

MTZ028>042-056>058-021200-
SOUTHCENTRAL AND SOUTHEAST MONTANA
CITY           SKY/WX    TMP DP  RH WIND       PRES   REMARKS
BAKER          CLEAR     12   7  80 SE18      30.01F WCI  -5
BILLINGS       CLEAR     19   9  65 SW8       29.88F WCI   9
LIVINGSTON     CLEAR     16   5  62 NW21G28   29.85F WCI  -1
MILES CITY     PTCLDY    16   7  67 S15       29.95F WCI   1
* BIG TIMBER A CLEAR     16   5  62 S5        29.87F WCI   8
* FORSYTH APT  PTCLDY    14   9  80 E6        29.92F WCI   5
* LAUREL APT   CLEAR     25   5  42 S10G18     N/A   WCI  15
* ROUNDUP APT  PTCLDY    18   3  52 S6         N/A   WCI  10
* ALZADA       N/A        7   3  83 E4         N/A
* HYSHAM       N/A       20   3  47 SW4G9      N/A
* LAME DEER    N/A       14   7  73 S9         N/A   WCI   2
* REED POINT   N/A        9   7  91 N/A        N/A
* ROSCOE HILL  N/A       18  -5  35 S3         N/A
$$

REGIONAL REPORTS...DAKOTAS
CITY           SKY/WX    TMP DP  RH WIND       PRES   REMARKS
WILLISTON      PTCLDY    10   3  73 S7        30.07F WCI  -1
DICKINSON      CLEAR      9   3  76 S10       30.07F WCI  -5
BEACH          FAIR       9   7  91 S13       30.03F WCI  -7
CROSBY         CLEAR      5   0  80 S12       30.06F WCI -11
TIOGA          LGT SNOW   7   7 100 S13       30.09F WCI  -9
WATFORD CITY   CLEAR     12   7  80 S6        30.07F WCI   2
BISMARCK       PTCLDY     7   1  76 SE9       30.26F WCI  -6
GRAND FORKS    PTCLDY    -6  -9  87 SW7       30.35R WCI -20
FARGO          MOCLDY     1  -4  79 SW9       30.39S WCI -14
BUFFALO SD     PTCLDY    12   5  73 SE17      29.96F WCI  -5
RAPID CITY     MOCLDY    16   9  74 S17       30.08F
$$

REGIONAL REPORTS...WYOMING/IDAHO/WASHINGTON
CITY           SKY/WX    TMP DP  RH WIND       PRES   REMARKS
GILLETTE       PTCLDY    16   9  74 S23G31    29.90F WCI  -2
SHERIDAN       PTCLDY     3  -2  79 S5        29.88F WCI  -7
CODY           CLEAR     10   9  96 CALM      29.86F
YELLOWSTONE LA PTCLDY    -9 -15  74 NW3       29.90F
SALMON         PTCLDY    18  10  71 CALM      29.92F
MULLAN PASS    MOCLDY    23   5  46 SW6       29.79S WCI  16
SAND POINT     CLEAR     23  18  81 CALM      29.92F
SPOKANE        CLOUDY    28  18  66 NE5       29.89F WCI  22
$$

REGIONAL REPORTS...ALBERTA
CITY           SKY/WX    TMP DP  RH WIND       PRES   REMARKS
CALGARY        LGT SNOW  27  25  92 NW9       29.82R WCI  18
LETHBRIDGE     FAIR      28  16  61 W15       29.81R WCI  16
MEDICINE HAT   FAIR      21  16  81 SW16G22   29.74F WCI   7
EDMONTON       LGT SNOW  27  23  85 NW17      29.86R VSB 1 1/2 WCI  14
WATERTON GATE  N/A       28  14  56 SW14G21    N/A   WCI  17
CARDSTON       N/A       27  16  63 W13        N/A   WCI  16
MILK RIVER     N/A       18  14  84 W9         N/A   WCI   7
$$

REGIONAL REPORTS...SASKATCHEWAN
CITY           SKY/WX    TMP DP  RH WIND       PRES   REMARKS
SWIFT CURRENT  FAIR      14   9  80 S20G26    29.75F WCI  -4
MOOSE JAW      CLOUDY    14   7  73 S13       29.90F
REGINA         N/A        1  -4  79 SE17      29.96F WCI -19
VAL MARIE      N/A       16  10  77 S14        N/A   WCI   2
ASSINIBOIA     N/A       16   7  67 S13G18     N/A   WCI   2
CORONACH       N/A       12   7  80 SE9        N/A

$$




USA.gov is the U.S. government's official web portal to all federal, state and local government web resources and services.